カタログに戻る

FENGYUN 1C DEB

運用中SSO
NORAD 31476·DEBRIS·🇨🇳 China

打ち上げ May 10, 1999 から Taiyuan Satellite Launch Center

Loading…

次のパス (今後24時間)

TLE

最新Source: Space-Track

元期: Sep 13, 2026, 11:00 UTC

1 31476U 99025BVQ 26256.45868048  .00001688  00000-0  75163-3 0  9998
2 31476  98.8839 337.4790 0051903 101.9343 258.7661 14.23501531996060

AllMySatでFENGYUN 1C DEBをリアルタイム追跡

Download on the App Store